A/2019 O2

Japanese version
Home page
Updated on December 24, 2019

---------------------------------------------------------------------

* Profile

Discovery Date July 24, 2019
Magnitude 20.5 mag
Discoverer Pan-STARRS 1 telescope (Haleakala)

* Orbital Elements

Epoch 2023 Apr. 6.0 TT = JDT 2460040.5
T 2023 Apr. 7.57453 TT                                  Williams
q   9.6810484            (2000.0)            P               Q
z  +0.0172741      Peri.  129.66126     -0.39177104     -0.53997888
 +/-0.0000000      Node    48.26092     -0.76978615     -0.25108956
e   0.8327681      Incl.   93.30686     +0.50392929     -0.80335350
H    9.5
From 55 observations 2019 July 24-Nov. 24, mean residual 0".3.

* Magnitudes Graph

        H = 9.5  G = 0.15

---------------------------------------------------------------------

The orbital elements are published on M.P.E.C. 2019-X94.
The magnitudes graphs are made with Comet for Windows.

---------------------------------------------------------------------

Copyright(C) Seiichi Yoshida (comet@aerith.net). All rights reserved.